Location: *
(51.4660°N, 0.3360°W)
Time: 06:52:58
(UTC+00:00)

CZ-2C R/B - Pass Details

Date: 19 September 2019
Orbit: 785 x 870 km, 98.3° (Epoch: 18 October)

Event Time Altitude Azimuth Distance (km) Brightness Sun altitude
Rises 20:10:55 0° 21° (NNE) 3,433 6.0 -19.2°
Reaches altitude 10° 20:13:34 10° 32° (NNE) 2,503 5.1 -19.6°
Enters shadow 20:17:56 31° 82° (E) 1,491 3.6 -20.2°
